User: anonymous   Login
Location: Unspecified
(48.5670°N, 0.0000°E)
Time: 01:29:36
(UTC+00:00)
Language:

NO-84 - Orbit

View from above orbital plane
View from above orbital plane
View from above satellite
View from above satellite

Ground track
Ground track

The orbit data is extracted from the following two-line orbital elements,

1 40654U 15025D   20295.45456555  .00024272  00000-0  25257-3 0   711
2 40654  54.9829  78.6761 0109689 154.5443 206.1112 15.57247072188631
Epoch (UTC): 21 October 2020 10:54:34
Eccentricity: 0.0109689
inclination: 54.9829°
perigee height: 321 km
apogee height: 470 km
right ascension of ascending node: 78.6761°
argument of perigee: 154.5443°
revolutions per day: 15.57247072
mean anomaly at epoch: 206.1112°
orbit number at epoch: 18863

The dashed part of the orbit path shows where the satellite is in the earth's shadow,  

DLR